Year,Month,Day,Hour,Minute,Value (Times are PST for temperature in C)
2010,09,02,00,00,11.70
2010,09,02,00,01,11.70
2010,09,02,00,02,11.70
2010,09,02,00,03,11.70
2010,09,02,00,04,11.70
2010,09,02,00,05,11.60
2010,09,02,00,06,11.60
2010,09,02,00,07,11.60
2010,09,02,00,08,11.60
2010,09,02,00,09,11.60
2010,09,02,00,10,11.60
2010,09,02,00,11,11.60
2010,09,02,00,12,11.60
2010,09,02,00,13,11.60
2010,09,02,00,14,11.50
2010,09,02,00,15,11.50
2010,09,02,00,16,11.50
2010,09,02,00,17,11.50
2010,09,02,00,18,11.50
2010,09,02,00,19,11.40
2010,09,02,00,20,11.40
2010,09,02,00,21,11.40
2010,09,02,00,22,11.40
2010,09,02,00,23,11.40
2010,09,02,00,24,11.40
2010,09,02,00,25,11.40
2010,09,02,00,26,11.40
2010,09,02,00,27,11.40
2010,09,02,00,28,11.40
2010,09,02,00,29,11.40
2010,09,02,00,30,11.40
2010,09,02,00,31,11.40
2010,09,02,00,32,11.40
2010,09,02,00,33,11.40
2010,09,02,00,34,11.40
2010,09,02,00,35,11.40
2010,09,02,00,36,11.40
2010,09,02,00,37,11.40
2010,09,02,00,38,11.40
2010,09,02,00,39,11.40
2010,09,02,00,40,11.40
2010,09,02,00,41,11.40
2010,09,02,00,42,11.40
2010,09,02,00,43,11.40
2010,09,02,00,44,11.40
2010,09,02,00,45,11.40
2010,09,02,00,46,11.40
2010,09,02,00,47,11.40
2010,09,02,00,48,11.40
2010,09,02,00,49,11.30
2010,09,02,00,50,11.30
2010,09,02,00,51,11.30
2010,09,02,00,52,11.30
2010,09,02,00,53,11.30
2010,09,02,00,54,11.30
2010,09,02,00,55,11.30
2010,09,02,00,56,11.30
2010,09,02,00,57,11.30
2010,09,02,00,58,11.30
2010,09,02,00,59,11.30
2010,09,02,01,00,11.30
2010,09,02,01,01,11.30
2010,09,02,01,02,11.30
2010,09,02,01,03,11.30
2010,09,02,01,04,11.30
2010,09,02,01,05,11.30
2010,09,02,01,06,11.30
2010,09,02,01,07,11.30
2010,09,02,01,08,11.30
2010,09,02,01,09,11.30
2010,09,02,01,10,11.30
2010,09,02,01,11,11.30
2010,09,02,01,12,11.20
2010,09,02,01,13,11.20
2010,09,02,01,14,11.20
2010,09,02,01,15,11.20
2010,09,02,01,16,11.20
2010,09,02,01,17,11.20
2010,09,02,01,18,11.20
2010,09,02,01,19,11.20
2010,09,02,01,20,11.20
2010,09,02,01,21,11.20
2010,09,02,01,22,11.10
2010,09,02,01,23,11.10
2010,09,02,01,24,11.10
2010,09,02,01,25,11.10
2010,09,02,01,26,11.10
2010,09,02,01,27,11.10
2010,09,02,01,28,11.10
2010,09,02,01,29,11.10
2010,09,02,01,30,11.10
2010,09,02,01,31,11.00
2010,09,02,01,32,11.00
2010,09,02,01,33,11.00
2010,09,02,01,34,11.00
2010,09,02,01,35,11.00
2010,09,02,01,36,11.00
2010,09,02,01,37,11.00
2010,09,02,01,38,10.90
2010,09,02,01,39,10.90
2010,09,02,01,40,10.90
2010,09,02,01,41,10.90
2010,09,02,01,42,10.90
2010,09,02,01,43,10.90
2010,09,02,01,44,10.90
2010,09,02,01,45,10.90
2010,09,02,01,46,10.90
2010,09,02,01,47,10.90
2010,09,02,01,48,10.90
2010,09,02,01,49,10.90
2010,09,02,01,50,10.90
2010,09,02,01,51,10.90
2010,09,02,01,52,10.90
2010,09,02,01,53,10.90
2010,09,02,01,54,10.90
2010,09,02,01,55,10.90
2010,09,02,01,56,10.90
2010,09,02,01,57,10.90
2010,09,02,01,58,10.90
2010,09,02,01,59,10.90
2010,09,02,02,00,10.90
2010,09,02,02,01,10.90
2010,09,02,02,02,10.80
2010,09,02,02,03,10.80
2010,09,02,02,04,10.80
2010,09,02,02,05,10.80
2010,09,02,02,06,10.80
2010,09,02,02,07,10.80
2010,09,02,02,08,10.80
2010,09,02,02,09,10.80
2010,09,02,02,10,10.80
2010,09,02,02,11,10.80
2010,09,02,02,12,10.80
2010,09,02,02,13,10.80
2010,09,02,02,14,10.80
2010,09,02,02,15,10.80
2010,09,02,02,16,10.80
2010,09,02,02,17,10.80
2010,09,02,02,18,10.80
2010,09,02,02,19,10.80
2010,09,02,02,20,10.80
2010,09,02,02,21,10.80
2010,09,02,02,22,10.80
2010,09,02,02,23,10.80
2010,09,02,02,24,10.80
2010,09,02,02,25,10.80
2010,09,02,02,26,10.80
2010,09,02,02,27,10.80
2010,09,02,02,28,10.80
2010,09,02,02,29,10.80
2010,09,02,02,30,10.80
2010,09,02,02,31,10.80
2010,09,02,02,32,10.80
2010,09,02,02,33,10.80
2010,09,02,02,34,10.80
2010,09,02,02,35,10.80
2010,09,02,02,36,10.80
2010,09,02,02,37,10.80
2010,09,02,02,38,10.80
2010,09,02,02,39,10.80
2010,09,02,02,40,10.80
2010,09,02,02,41,10.80
2010,09,02,02,42,10.70
2010,09,02,02,43,10.70
2010,09,02,02,44,10.70
2010,09,02,02,45,10.70
2010,09,02,02,46,10.70
2010,09,02,02,47,10.70
2010,09,02,02,48,10.70
2010,09,02,02,49,10.60
2010,09,02,02,50,10.60
2010,09,02,02,51,10.60
2010,09,02,02,52,10.60
2010,09,02,02,53,10.60
2010,09,02,02,54,10.60
2010,09,02,02,55,10.60
2010,09,02,02,56,10.50
2010,09,02,02,57,10.50
2010,09,02,02,58,10.50
2010,09,02,02,59,10.50
2010,09,02,03,00,10.40
2010,09,02,03,01,10.40
2010,09,02,03,06,10.40
2010,09,02,03,07,10.40
2010,09,02,03,08,10.30
2010,09,02,03,09,10.30
2010,09,02,03,10,10.30
2010,09,02,03,11,10.30
2010,09,02,03,12,10.30
2010,09,02,03,13,10.30
2010,09,02,03,14,10.30
2010,09,02,03,15,10.30
2010,09,02,03,16,10.30
2010,09,02,03,17,10.20
2010,09,02,03,18,10.20
2010,09,02,03,19,10.20
2010,09,02,03,20,10.20
2010,09,02,03,21,10.20
2010,09,02,03,22,10.20
2010,09,02,03,23,10.20
2010,09,02,03,24,10.20
2010,09,02,03,25,10.10
2010,09,02,03,26,10.10
2010,09,02,03,27,10.10
2010,09,02,03,28,10.10
2010,09,02,03,29,10.10
2010,09,02,03,30,10.10
2010,09,02,03,31,10.00
2010,09,02,03,32,10.00
2010,09,02,03,33,10.00
2010,09,02,03,34,10.00
2010,09,02,03,35,10.00
2010,09,02,03,36,10.00
2010,09,02,03,37,9.90
2010,09,02,03,38,9.90
2010,09,02,03,39,9.90
2010,09,02,03,40,9.90
2010,09,02,03,41,9.90
2010,09,02,03,42,9.90
2010,09,02,03,43,9.90
2010,09,02,03,44,9.80
2010,09,02,03,45,9.80
2010,09,02,03,46,9.80
2010,09,02,03,47,9.80
2010,09,02,03,48,9.80
2010,09,02,03,49,9.80
2010,09,02,03,50,9.80
2010,09,02,03,51,9.80
2010,09,02,03,52,9.70
2010,09,02,03,53,9.70
2010,09,02,03,54,9.70
2010,09,02,03,55,9.70
2010,09,02,03,56,9.70
2010,09,02,03,57,9.70
2010,09,02,03,58,9.70
2010,09,02,03,59,9.70
2010,09,02,04,00,9.70
2010,09,02,04,01,9.70
2010,09,02,04,02,9.70
2010,09,02,04,03,9.70
2010,09,02,04,04,9.70
2010,09,02,04,05,9.70
2010,09,02,04,06,9.70
2010,09,02,04,07,9.70
2010,09,02,04,08,9.70
2010,09,02,04,09,9.70
2010,09,02,04,10,9.70
2010,09,02,04,11,9.70
2010,09,02,04,12,9.70
2010,09,02,04,13,9.70
2010,09,02,04,14,9.70
2010,09,02,04,15,9.70
2010,09,02,04,16,9.70
2010,09,02,04,17,9.70
2010,09,02,04,18,9.70
2010,09,02,04,19,9.70
2010,09,02,04,20,9.80
2010,09,02,04,21,9.80
2010,09,02,04,22,9.80
2010,09,02,04,23,9.80
2010,09,02,04,24,9.80
2010,09,02,04,25,9.80
2010,09,02,04,26,9.80
2010,09,02,04,27,9.80
2010,09,02,04,28,9.80
2010,09,02,04,29,9.80
2010,09,02,04,30,9.80
2010,09,02,04,31,9.80
2010,09,02,04,32,9.80
2010,09,02,04,33,9.80
2010,09,02,04,34,9.80
2010,09,02,04,35,9.80
2010,09,02,04,36,9.80
2010,09,02,04,37,9.80
2010,09,02,04,38,9.80
2010,09,02,04,39,9.80
2010,09,02,04,40,9.80
2010,09,02,04,41,9.80
2010,09,02,04,42,9.80
2010,09,02,04,43,9.80
2010,09,02,04,44,9.80
2010,09,02,04,45,9.90
2010,09,02,04,46,9.90
2010,09,02,04,47,9.80
2010,09,02,04,48,9.80
2010,09,02,04,49,9.80
2010,09,02,04,50,9.80
2010,09,02,04,51,9.80
2010,09,02,04,52,9.80
2010,09,02,04,53,9.80
2010,09,02,04,54,9.80
2010,09,02,04,55,9.80
2010,09,02,04,56,9.80
2010,09,02,04,57,9.70
2010,09,02,04,58,9.70
2010,09,02,04,59,9.70
2010,09,02,05,00,9.70
2010,09,02,05,01,9.70
2010,09,02,05,02,9.70
2010,09,02,05,03,9.70
2010,09,02,05,04,9.70
2010,09,02,05,05,9.70
2010,09,02,05,06,9.60
2010,09,02,05,07,9.60
2010,09,02,05,08,9.60
2010,09,02,05,09,9.60
2010,09,02,05,10,9.60
2010,09,02,05,11,9.60
2010,09,02,05,12,9.60
2010,09,02,05,13,9.60
2010,09,02,05,14,9.60
2010,09,02,05,15,9.60
2010,09,02,05,16,9.60
2010,09,02,05,17,9.60
2010,09,02,05,18,9.60
2010,09,02,05,19,9.70
2010,09,02,05,20,9.70
2010,09,02,05,21,9.70
2010,09,02,05,22,9.70
2010,09,02,05,23,9.70
2010,09,02,05,24,9.70
2010,09,02,05,25,9.70
2010,09,02,05,26,9.70
2010,09,02,05,27,9.70
2010,09,02,05,28,9.70
2010,09,02,05,29,9.70
2010,09,02,05,30,9.70
2010,09,02,05,31,9.70
2010,09,02,05,32,9.70
2010,09,02,05,33,9.70
2010,09,02,05,34,9.70
2010,09,02,05,35,9.70
2010,09,02,05,36,9.70
2010,09,02,05,37,9.70
2010,09,02,05,38,9.70
2010,09,02,05,39,9.70
2010,09,02,05,40,9.70
2010,09,02,05,41,9.70
2010,09,02,05,42,9.70
2010,09,02,05,43,9.70
2010,09,02,05,44,9.70
2010,09,02,05,45,9.70
2010,09,02,05,46,9.70
2010,09,02,05,47,9.70
2010,09,02,05,48,9.70
2010,09,02,05,49,9.70
2010,09,02,05,50,9.70
2010,09,02,05,51,9.70
2010,09,02,05,52,9.70
2010,09,02,05,53,9.70
2010,09,02,05,54,9.70
2010,09,02,05,55,9.70
2010,09,02,05,56,9.70
2010,09,02,05,57,9.70
2010,09,02,05,58,9.70
2010,09,02,05,59,9.60
2010,09,02,06,00,9.60
2010,09,02,06,01,9.60
2010,09,02,06,02,9.60
2010,09,02,06,03,9.60
2010,09,02,06,04,9.60
2010,09,02,06,05,9.50
2010,09,02,06,06,9.50
2010,09,02,06,07,9.50
2010,09,02,06,08,9.50
2010,09,02,06,09,9.40
2010,09,02,06,10,9.40
2010,09,02,06,11,9.40
2010,09,02,06,12,9.40
2010,09,02,06,13,9.40
2010,09,02,06,14,9.30
2010,09,02,06,15,9.30
2010,09,02,06,16,9.30
2010,09,02,06,17,9.30
2010,09,02,06,18,9.20
2010,09,02,06,19,9.20
2010,09,02,06,20,9.20
2010,09,02,06,21,9.20
2010,09,02,06,22,9.10
2010,09,02,06,23,9.10
2010,09,02,06,24,9.10
2010,09,02,06,25,9.10
2010,09,02,06,26,9.00
2010,09,02,06,27,9.00
2010,09,02,06,28,8.90
2010,09,02,06,29,8.90
2010,09,02,06,30,8.90
2010,09,02,06,31,8.90
2010,09,02,06,32,8.80
2010,09,02,06,33,8.80
2010,09,02,06,34,8.80
2010,09,02,06,35,8.80
2010,09,02,06,36,8.80
2010,09,02,06,37,8.70
2010,09,02,06,38,8.70
2010,09,02,06,39,8.70
2010,09,02,06,40,8.70
2010,09,02,06,41,8.70
2010,09,02,06,42,8.70
2010,09,02,06,43,8.70
2010,09,02,06,44,8.60
2010,09,02,06,45,8.60
2010,09,02,06,46,8.60
2010,09,02,06,47,8.60
2010,09,02,06,48,8.60
2010,09,02,06,49,8.60
2010,09,02,06,50,8.60
2010,09,02,06,51,8.60
2010,09,02,06,52,8.60
2010,09,02,06,53,8.60
2010,09,02,06,54,8.60
2010,09,02,06,55,8.60
2010,09,02,06,56,8.60
2010,09,02,06,57,8.60
2010,09,02,06,58,8.60
2010,09,02,06,59,8.60
2010,09,02,07,00,8.60
2010,09,02,07,01,8.70
2010,09,02,07,02,8.70
2010,09,02,07,03,8.70
2010,09,02,07,04,8.70
2010,09,02,07,05,8.80
2010,09,02,07,06,8.80
2010,09,02,07,07,8.80
2010,09,02,07,08,8.80
2010,09,02,07,09,8.80
2010,09,02,07,10,8.90
2010,09,02,07,11,8.90
2010,09,02,07,12,8.90
2010,09,02,07,13,8.90
2010,09,02,07,14,8.90
2010,09,02,07,15,9.00
2010,09,02,07,16,9.00
2010,09,02,07,17,9.00
2010,09,02,07,18,9.10
2010,09,02,07,19,9.10
2010,09,02,07,20,9.10
2010,09,02,07,21,9.20
2010,09,02,07,22,9.20
2010,09,02,07,23,9.20
2010,09,02,07,24,9.20
2010,09,02,07,25,9.30
2010,09,02,07,26,9.30
2010,09,02,07,27,9.40
2010,09,02,07,28,9.40
2010,09,02,07,29,9.40
2010,09,02,07,30,9.50
2010,09,02,07,31,9.50
2010,09,02,07,32,9.50
2010,09,02,07,33,9.60
2010,09,02,07,34,9.60
2010,09,02,07,35,9.60
2010,09,02,07,36,9.60
2010,09,02,07,37,9.70
2010,09,02,07,38,9.70
2010,09,02,07,39,9.70
2010,09,02,07,40,9.70
2010,09,02,07,41,9.70
2010,09,02,07,42,9.80
2010,09,02,07,43,9.80
2010,09,02,07,44,9.80
2010,09,02,07,45,9.80
2010,09,02,07,46,9.90
2010,09,02,07,47,9.90
2010,09,02,07,48,9.90
2010,09,02,07,49,9.90
2010,09,02,07,50,10.00
2010,09,02,07,51,10.00
2010,09,02,07,52,10.10
2010,09,02,07,53,10.10
2010,09,02,07,54,10.10
2010,09,02,07,55,10.10
2010,09,02,07,56,10.20
2010,09,02,07,57,10.20
2010,09,02,07,58,10.20
2010,09,02,07,59,10.20
2010,09,02,08,00,10.30
2010,09,02,08,01,10.30
2010,09,02,08,02,10.30
2010,09,02,08,03,10.40
2010,09,02,08,04,10.40
2010,09,02,08,05,10.50
2010,09,02,08,06,10.50
2010,09,02,08,07,10.60
2010,09,02,08,08,10.60
2010,09,02,08,09,10.60
2010,09,02,08,10,10.70
2010,09,02,08,11,10.70
2010,09,02,08,12,10.80
2010,09,02,08,13,10.80
2010,09,02,08,14,10.80
2010,09,02,08,15,10.90
2010,09,02,08,16,10.90
2010,09,02,08,17,11.00
2010,09,02,08,18,11.00
2010,09,02,08,19,11.10
2010,09,02,08,20,11.20
2010,09,02,08,21,11.30
2010,09,02,08,22,11.30
2010,09,02,08,23,11.40
2010,09,02,08,24,11.50
2010,09,02,08,25,11.60
2010,09,02,08,26,11.70
2010,09,02,08,27,11.80
2010,09,02,08,28,11.90
2010,09,02,08,29,12.00
2010,09,02,08,30,12.10
2010,09,02,08,31,12.20
2010,09,02,08,32,12.30
2010,09,02,08,33,12.40
2010,09,02,08,34,12.50
2010,09,02,08,35,12.60
2010,09,02,08,36,12.70
2010,09,02,08,37,12.80
2010,09,02,08,38,12.90
2010,09,02,08,39,13.00
2010,09,02,08,40,13.10
2010,09,02,08,41,13.30
2010,09,02,08,42,13.40
2010,09,02,08,43,13.60
2010,09,02,08,44,13.70
2010,09,02,08,45,13.90
2010,09,02,08,46,14.10
2010,09,02,08,47,14.30
2010,09,02,08,48,14.50
2010,09,02,08,49,14.70
2010,09,02,08,50,14.90
2010,09,02,08,51,15.00
2010,09,02,08,52,15.20
2010,09,02,08,53,15.40
2010,09,02,08,54,15.60
2010,09,02,08,55,15.70
2010,09,02,08,56,15.80
2010,09,02,08,57,16.00
2010,09,02,08,58,16.10
2010,09,02,08,59,16.20
2010,09,02,09,00,16.30
2010,09,02,09,01,16.40
2010,09,02,09,02,16.40
2010,09,02,09,03,16.50
2010,09,02,09,04,16.60
2010,09,02,09,05,16.60
2010,09,02,09,06,16.60
2010,09,02,09,07,16.70
2010,09,02,09,08,16.60
2010,09,02,09,09,16.60
2010,09,02,09,10,16.60
2010,09,02,09,11,16.70
2010,09,02,09,12,16.70
2010,09,02,09,13,16.70
2010,09,02,09,14,16.80
2010,09,02,09,15,16.80
2010,09,02,09,16,16.70
2010,09,02,09,17,16.60
2010,09,02,09,18,16.50
2010,09,02,09,19,16.40
2010,09,02,09,20,16.30
2010,09,02,09,21,16.30
2010,09,02,09,22,16.20
2010,09,02,09,23,16.20
2010,09,02,09,24,16.20
2010,09,02,09,25,16.20
2010,09,02,09,26,16.20
2010,09,02,09,27,16.20
2010,09,02,09,28,16.20
2010,09,02,09,29,16.30
2010,09,02,09,30,16.30
2010,09,02,09,31,16.30
2010,09,02,09,32,16.30
2010,09,02,09,33,16.30
2010,09,02,09,34,16.40
2010,09,02,09,35,16.40
2010,09,02,09,36,16.40
2010,09,02,09,37,16.40
2010,09,02,09,38,16.40
2010,09,02,09,39,16.50
2010,09,02,09,40,16.50
2010,09,02,09,41,16.60
2010,09,02,09,42,16.60
2010,09,02,09,43,16.70
2010,09,02,09,44,16.70
2010,09,02,09,45,16.70
2010,09,02,09,46,16.70
2010,09,02,09,47,16.80
2010,09,02,09,48,16.80
2010,09,02,09,49,16.80
2010,09,02,09,50,16.80
2010,09,02,09,51,16.70
2010,09,02,09,52,16.70
2010,09,02,09,53,16.80
2010,09,02,09,54,16.80
2010,09,02,09,55,16.90
2010,09,02,09,56,17.10
2010,09,02,09,57,17.10
2010,09,02,09,58,17.20
2010,09,02,09,59,17.30
2010,09,02,10,00,17.30
2010,09,02,10,01,17.40
2010,09,02,10,02,17.40
2010,09,02,10,03,17.40
2010,09,02,10,04,17.30
2010,09,02,10,05,17.20
2010,09,02,10,06,17.10
2010,09,02,10,07,17.10
2010,09,02,10,08,17.10
2010,09,02,10,09,17.00
2010,09,02,10,10,16.90
2010,09,02,10,11,16.80
2010,09,02,10,12,16.80
2010,09,02,10,13,16.80
2010,09,02,10,14,16.90
2010,09,02,10,15,16.90
2010,09,02,10,16,16.90
2010,09,02,10,17,17.00
2010,09,02,10,18,17.00
2010,09,02,10,19,17.10
2010,09,02,10,20,17.20
2010,09,02,10,21,17.30
2010,09,02,10,22,17.40
2010,09,02,10,23,17.60
2010,09,02,10,24,17.70
2010,09,02,10,25,17.80
2010,09,02,10,26,17.80
2010,09,02,10,27,17.80
2010,09,02,10,28,17.90
2010,09,02,10,29,17.90
2010,09,02,10,30,17.90
2010,09,02,10,31,17.90
2010,09,02,10,32,17.90
2010,09,02,10,33,17.90
2010,09,02,10,34,17.90
2010,09,02,10,35,17.80
2010,09,02,10,36,17.80
2010,09,02,10,37,17.80
2010,09,02,10,38,17.90
2010,09,02,10,39,17.90
2010,09,02,10,40,17.80
2010,09,02,10,41,17.70
2010,09,02,10,42,17.70
2010,09,02,10,43,17.80
2010,09,02,10,44,17.80
2010,09,02,10,45,17.90
2010,09,02,10,46,17.90
2010,09,02,10,47,17.90
2010,09,02,10,48,18.00
2010,09,02,10,49,18.10
2010,09,02,10,50,18.10
2010,09,02,10,51,18.10
2010,09,02,10,52,18.10
2010,09,02,10,53,18.10
2010,09,02,10,54,18.10
2010,09,02,10,55,18.10
2010,09,02,10,56,18.10
2010,09,02,10,57,18.10
2010,09,02,10,58,18.20
2010,09,02,10,59,18.20
2010,09,02,11,00,18.20
2010,09,02,11,01,18.30
2010,09,02,11,02,18.30
2010,09,02,11,03,18.30
2010,09,02,11,04,18.30
2010,09,02,11,05,18.20
2010,09,02,11,06,18.20
2010,09,02,11,07,18.20
2010,09,02,11,08,18.30
2010,09,02,11,09,18.40
2010,09,02,11,10,18.50
2010,09,02,11,11,18.50
2010,09,02,11,12,18.60
2010,09,02,11,13,18.70
2010,09,02,11,14,18.80
2010,09,02,11,15,18.80
2010,09,02,11,16,18.80
2010,09,02,11,17,18.80
2010,09,02,11,18,18.90
2010,09,02,11,19,19.00
2010,09,02,11,20,19.00
2010,09,02,11,21,19.10
2010,09,02,11,22,19.10
2010,09,02,11,23,19.10
2010,09,02,11,24,19.00
2010,09,02,11,25,19.00
2010,09,02,11,26,19.00
2010,09,02,11,27,19.00
2010,09,02,11,28,19.10
2010,09,02,11,29,19.10
2010,09,02,11,30,19.10
2010,09,02,11,31,19.20
2010,09,02,11,32,19.30
2010,09,02,11,33,19.30
2010,09,02,11,34,19.40
2010,09,02,11,35,19.50
2010,09,02,11,36,19.60
2010,09,02,11,37,19.70
2010,09,02,11,38,19.70
2010,09,02,11,39,19.80
2010,09,02,11,40,19.90
2010,09,02,11,41,19.90
2010,09,02,11,42,19.90
2010,09,02,11,43,19.90
2010,09,02,11,44,19.90
2010,09,02,11,45,19.90
2010,09,02,11,46,19.90
2010,09,02,11,47,19.90
2010,09,02,11,48,19.90
2010,09,02,11,49,20.00
2010,09,02,11,50,20.00
2010,09,02,11,51,20.10
2010,09,02,11,52,20.20
2010,09,02,11,53,20.20
2010,09,02,11,54,20.20
2010,09,02,11,55,20.30
2010,09,02,11,56,20.30
2010,09,02,11,57,20.20
2010,09,02,11,58,20.20
2010,09,02,11,59,20.30
2010,09,02,12,00,20.30
2010,09,02,12,01,20.30
2010,09,02,12,02,20.30
2010,09,02,12,03,20.20
2010,09,02,12,04,20.20
2010,09,02,12,05,20.20
2010,09,02,12,06,20.20
2010,09,02,12,07,20.10
2010,09,02,12,08,20.10
2010,09,02,12,09,20.20
2010,09,02,12,10,20.20
2010,09,02,12,11,20.30
2010,09,02,12,12,20.30
2010,09,02,12,13,20.30
2010,09,02,12,14,20.40
2010,09,02,12,15,20.40
2010,09,02,12,16,20.50
2010,09,02,12,17,20.60
2010,09,02,12,18,20.70
2010,09,02,12,19,20.80
2010,09,02,12,20,20.90
2010,09,02,12,21,21.00
2010,09,02,12,22,21.00
2010,09,02,12,23,21.10
2010,09,02,12,24,21.10
2010,09,02,12,25,21.10
2010,09,02,12,26,21.10
2010,09,02,12,27,21.10
2010,09,02,12,28,21.10
2010,09,02,12,29,21.10
2010,09,02,12,30,21.00
2010,09,02,12,31,20.90
2010,09,02,12,32,20.90
2010,09,02,12,33,20.90
2010,09,02,12,34,20.90
2010,09,02,12,35,20.90
2010,09,02,12,36,21.00
2010,09,02,12,37,21.00
2010,09,02,12,38,21.00
2010,09,02,12,39,21.00
2010,09,02,12,40,21.10
2010,09,02,12,41,21.10
2010,09,02,12,42,21.10
2010,09,02,12,43,21.00
2010,09,02,12,44,21.00
2010,09,02,12,45,20.90
2010,09,02,12,46,20.90
2010,09,02,12,47,20.90
2010,09,02,12,48,20.90
2010,09,02,12,49,20.90
2010,09,02,12,50,20.90
2010,09,02,12,51,20.90
2010,09,02,12,52,20.90
2010,09,02,12,53,20.90
2010,09,02,12,54,20.90
2010,09,02,12,55,20.90
2010,09,02,12,56,20.90
2010,09,02,12,57,20.80
2010,09,02,12,58,20.80
2010,09,02,12,59,20.80
2010,09,02,13,00,20.70
2010,09,02,13,01,20.70
2010,09,02,13,02,20.70
2010,09,02,13,03,20.60
2010,09,02,13,04,20.60
2010,09,02,13,05,20.60
2010,09,02,13,06,20.60
2010,09,02,13,07,20.60
2010,09,02,13,08,20.60
2010,09,02,13,09,20.70
2010,09,02,13,10,20.70
2010,09,02,13,11,20.60
2010,09,02,13,12,20.60
2010,09,02,13,13,20.50
2010,09,02,13,14,20.50
2010,09,02,13,15,20.50
2010,09,02,13,16,20.50
2010,09,02,13,17,20.50
2010,09,02,13,18,20.50
2010,09,02,13,19,20.60
2010,09,02,13,20,20.50
2010,09,02,13,21,20.40
2010,09,02,13,22,20.30
2010,09,02,13,23,20.10
2010,09,02,13,24,20.00
2010,09,02,13,25,19.90
2010,09,02,13,26,19.80
2010,09,02,13,27,19.70
2010,09,02,13,28,19.70
2010,09,02,13,29,19.60
2010,09,02,13,30,19.60
2010,09,02,13,31,19.60
2010,09,02,13,32,19.50
2010,09,02,13,33,19.50
2010,09,02,13,34,19.50
2010,09,02,13,35,19.60
2010,09,02,13,36,19.60
2010,09,02,13,37,19.70
2010,09,02,13,38,19.80
2010,09,02,13,39,20.00
2010,09,02,13,40,20.10
2010,09,02,13,41,20.20
2010,09,02,13,42,20.30
2010,09,02,13,43,20.40
2010,09,02,13,44,20.50
2010,09,02,13,45,20.60
2010,09,02,13,46,20.70
2010,09,02,13,47,20.80
2010,09,02,13,48,20.80
2010,09,02,13,49,20.90
2010,09,02,13,50,20.90
2010,09,02,13,51,21.00
2010,09,02,13,52,21.00
2010,09,02,13,53,21.00
2010,09,02,13,54,21.10
2010,09,02,13,55,21.00
2010,09,02,13,56,21.00
2010,09,02,13,57,20.90
2010,09,02,13,58,20.90
2010,09,02,13,59,20.80
2010,09,02,14,00,20.80
2010,09,02,14,01,20.80
2010,09,02,14,02,20.80
2010,09,02,14,03,20.80
2010,09,02,14,04,20.80
2010,09,02,14,05,20.70
2010,09,02,14,06,20.60
2010,09,02,14,07,20.50
2010,09,02,14,08,20.40
2010,09,02,14,09,20.30
2010,09,02,14,10,20.30
2010,09,02,14,11,20.30
2010,09,02,14,12,20.20
2010,09,02,14,13,20.20
2010,09,02,14,14,20.10
2010,09,02,14,15,20.10
2010,09,02,14,16,20.10
2010,09,02,14,17,20.00
2010,09,02,14,18,20.00
2010,09,02,14,19,19.90
2010,09,02,14,20,19.80
2010,09,02,14,21,19.90
2010,09,02,14,22,19.90
2010,09,02,14,23,20.10
2010,09,02,14,24,20.20
2010,09,02,14,25,20.30
2010,09,02,14,26,20.40
2010,09,02,14,27,20.50
2010,09,02,14,28,20.60
2010,09,02,14,29,20.60
2010,09,02,14,30,20.70
2010,09,02,14,31,20.80
2010,09,02,14,32,20.80
2010,09,02,14,33,20.80
2010,09,02,14,34,20.80
2010,09,02,14,35,20.80
2010,09,02,14,36,20.80
2010,09,02,14,37,20.90
2010,09,02,14,38,21.00
2010,09,02,14,39,21.10
2010,09,02,14,40,21.10
2010,09,02,14,41,21.20
2010,09,02,14,42,21.30
2010,09,02,14,43,21.30
2010,09,02,14,44,21.40
2010,09,02,14,45,21.50
2010,09,02,14,46,21.70
2010,09,02,14,47,21.70
2010,09,02,14,48,21.80
2010,09,02,14,49,21.80
2010,09,02,14,50,21.80
2010,09,02,14,51,21.80
2010,09,02,14,52,21.90
2010,09,02,14,53,21.90
2010,09,02,14,54,22.00
2010,09,02,14,55,22.10
2010,09,02,14,56,22.10
2010,09,02,14,57,22.10
2010,09,02,14,58,22.20
2010,09,02,14,59,22.30
2010,09,02,15,00,22.30
2010,09,02,15,01,22.30
2010,09,02,15,02,22.40
2010,09,02,15,03,22.40
2010,09,02,15,04,22.50
2010,09,02,15,05,22.50
2010,09,02,15,06,22.60
2010,09,02,15,07,22.60
2010,09,02,15,08,22.60
2010,09,02,15,09,22.50
2010,09,02,15,10,22.50
2010,09,02,15,11,22.30
2010,09,02,15,12,22.20
2010,09,02,15,13,22.20
2010,09,02,15,14,22.20
2010,09,02,15,15,22.10
2010,09,02,15,16,22.10
2010,09,02,15,17,22.10
2010,09,02,15,18,22.10
2010,09,02,15,19,22.20
2010,09,02,15,20,22.20
2010,09,02,15,21,22.20
2010,09,02,15,22,22.20
2010,09,02,15,23,22.20
2010,09,02,15,24,22.20
2010,09,02,15,25,22.20
2010,09,02,15,26,22.20
2010,09,02,15,27,22.20
2010,09,02,15,28,22.30
2010,09,02,15,29,22.40
2010,09,02,15,30,22.40
2010,09,02,15,31,22.50
2010,09,02,15,32,22.60
2010,09,02,15,33,22.70
2010,09,02,15,34,22.70
2010,09,02,15,35,22.80
2010,09,02,15,36,22.80
2010,09,02,15,37,22.80
2010,09,02,15,38,22.80
2010,09,02,15,39,22.80
2010,09,02,15,40,22.80
2010,09,02,15,41,22.80
2010,09,02,15,42,22.80
2010,09,02,15,43,22.80
2010,09,02,15,44,22.80
2010,09,02,15,45,22.70
2010,09,02,15,46,22.70
2010,09,02,15,47,22.70
2010,09,02,15,48,22.70
2010,09,02,15,49,22.70
2010,09,02,15,50,22.60
2010,09,02,15,51,22.60
2010,09,02,15,52,22.50
2010,09,02,15,53,22.50
2010,09,02,15,54,22.40
2010,09,02,15,55,22.40
2010,09,02,15,56,22.30
2010,09,02,15,57,22.30
2010,09,02,15,58,22.30
2010,09,02,15,59,22.30
2010,09,02,16,00,22.20
2010,09,02,16,01,22.20
2010,09,02,16,02,22.10
2010,09,02,16,03,22.10
2010,09,02,16,04,22.10
2010,09,02,16,05,22.10
2010,09,02,16,06,22.10
2010,09,02,16,07,22.10
2010,09,02,16,08,22.20
2010,09,02,16,09,22.20
2010,09,02,16,10,22.20
2010,09,02,16,11,22.20
2010,09,02,16,12,22.20
2010,09,02,16,13,22.20
2010,09,02,16,14,22.10
2010,09,02,16,15,22.10
2010,09,02,16,16,22.10
2010,09,02,16,17,22.00
2010,09,02,16,18,22.00
2010,09,02,16,19,21.90
2010,09,02,16,20,21.80
2010,09,02,16,21,21.70
2010,09,02,16,22,21.60
2010,09,02,16,23,21.50
2010,09,02,16,24,21.40
2010,09,02,16,25,21.30
2010,09,02,16,26,21.30
2010,09,02,16,27,21.30
2010,09,02,16,28,21.30
2010,09,02,16,29,21.20
2010,09,02,16,30,21.30
2010,09,02,16,31,21.30
2010,09,02,16,32,21.20
2010,09,02,16,33,21.20
2010,09,02,16,34,21.10
2010,09,02,16,35,21.00
2010,09,02,16,36,21.00
2010,09,02,16,37,21.00
2010,09,02,16,38,20.90
2010,09,02,16,39,20.80
2010,09,02,16,40,20.80
2010,09,02,16,41,20.80
2010,09,02,16,42,20.80
2010,09,02,16,43,20.90
2010,09,02,16,44,21.00
2010,09,02,16,45,21.10
2010,09,02,16,46,21.10
2010,09,02,16,47,21.20
2010,09,02,16,48,21.30
2010,09,02,16,49,21.30
2010,09,02,16,50,21.30
2010,09,02,16,51,21.30
2010,09,02,16,52,21.20
2010,09,02,16,53,21.20
2010,09,02,16,54,21.10
2010,09,02,16,55,21.20
2010,09,02,16,56,21.10
2010,09,02,16,57,21.10
2010,09,02,16,58,21.00
2010,09,02,16,59,20.90
2010,09,02,17,00,20.90
2010,09,02,17,01,20.90
2010,09,02,17,02,20.80
2010,09,02,17,03,20.70
2010,09,02,17,04,20.70
2010,09,02,17,05,20.60
2010,09,02,17,06,20.50
2010,09,02,17,07,20.40
2010,09,02,17,08,20.40
2010,09,02,17,09,20.30
2010,09,02,17,10,20.20
2010,09,02,17,11,20.20
2010,09,02,17,12,20.20
2010,09,02,17,13,20.20
2010,09,02,17,14,20.10
2010,09,02,17,15,20.10
2010,09,02,17,16,20.10
2010,09,02,17,17,20.10
2010,09,02,17,18,20.00
2010,09,02,17,19,20.00
2010,09,02,17,20,20.00
2010,09,02,17,21,19.90
2010,09,02,17,22,19.90
2010,09,02,17,23,19.80
2010,09,02,17,24,19.80
2010,09,02,17,25,19.80
2010,09,02,17,26,19.80
2010,09,02,17,27,19.80
2010,09,02,17,28,19.80
2010,09,02,17,29,19.80
2010,09,02,17,30,19.70
2010,09,02,17,31,19.70
2010,09,02,17,32,19.70
2010,09,02,17,33,19.70
2010,09,02,17,34,19.70